Погода в Тулгубе

Россия / Республика Карелия     62°04′05″N   34°21′14″E
темп.,
°C
ветер,
м/с
пор.,
м/с
влажн.,
%
обл.,
%
осадки,
мм/ч
давл.,
гПа
погр.,
м
24 июня, чт
чт2400:00+25ююз2964100 0.0 1015272
03:00+22юз297052 0.0 1014227
06:00+23юз411714 0.0 1013430
09:00+26зюз58530 0.0 10131062
12:00+30зюз46390 0.0 10141834
15:00+31зюз463519 0.0 10132110
18:00+30зюз453755 0.0 10132118
21:00+21зсз267616 0.2 1013174
25 июня, пт
пт2500:00+20зсз248021 0.0 1014142
03:00+17с238923 0.0 101454
06:00+19ссв24815 0.0 1015286
09:00+23св225919 0.0 1015807
12:00+26в224671 0.0 10151708
15:00+24юв235697 0.0 1015400
18:00+26вюв224726 0.0 1014630
21:00+21в256530 0.0 1012114
26 июня, сб
сб2600:00+18всв116678 0.0 101313
03:00+16всв1371100 0.0 101285
06:00+17всв1479100 0.3 1012151
09:00+17вюв1282100 0.3 1013123
12:00+24юв336134 0.0 1012820
15:00+25юв335646 0.0 10121203
18:00+25юв22555 0.0 1012766
21:00+21юв11751 0.1 101227
27 июня, вс
вс2700:00+18юв11855 0.1 101311
03:00+17всв119219 0.1 101411
06:00+20всв127735 0.0 1014161
09:00+24в34585 0.0 1014617
12:00+26в34505 0.0 1013937
15:00+28вюв34479 0.0 10121239
18:00+28вюв23485 0.0 1010934
21:00+22вюв237324 0.1 101072
28 июня, пн
пн2800:00+19ююв1187100 0.3 100911
03:00+17юв1298100 0.3 100836
06:00+21зюз148797 0.0 1007213
09:00+24зюз356794 0.0 1007705
12:00+25зюз4663100 0.0 1008966
15:00+29юз57365 0.0 10072186
18:00+27юз554314 0.0 10071912
21:00+22зюз3863100 0.0 1008635